GFSSE_prec_precacc24_090.txt.gz
Total_Precipitation_Accumulation
0.00 0.00 0.00 0.01 0.01 0.00 0.00 0.00 0.00 0.00 0.00 0.00 0.00 0.00 0.00 0.00 0.00 0.00 0.00 0.00 0.00 0.01 0.01 0.01 0.01 0.01 0.01 0.01 0.00 0.01 0.02 0.00 0.00 0.02 0.07 0.11 0.08 0.06 0.06 0.08 0.05 0.04 0.13
0.00 0.00 0.00 0.01 0.02 0.02 0.01 0.01 0.00 0.00 0.00 0.00 0.00 0.00 0.00 0.00 0.00 0.00 0.00 0.00 0.00 0.01 0.01 0.01 0.02 0.02 0.02 0.01 0.00 0.01 0.00 0.00 0.01 0.03 0.13 0.18 0.11 0.07 0.05 0.04 0.05 0.09 0.14
0.00 0.01 0.02 0.00 0.02 0.03 0.02 0.01 0.01 0.00 0.00 0.00 0.00 0.00 0.00 0.00 0.00 0.00 0.00 0.01 0.00 0.01 0.02 0.02 0.03 0.05 0.02 0.01 0.00 0.00 0.00 0.00 0.01 0.03 0.13 0.07 0.08 0.07 0.05 0.03 0.05 0.07 0.06
0.00 0.00 0.01 0.00 0.03 0.03 0.01 0.01 0.01 0.01 0.00 0.00 0.00 0.00 0.00 0.01 0.01 0.00 0.02 0.01 0.01 0.01 0.03 0.02 0.04 0.05 0.02 0.00 0.00 0.00 0.00 0.00 0.00 0.00 0.04 0.04 0.05 0.09 0.04 0.03 0.06 0.04 0.03
0.00 0.01 0.00 0.00 0.06 0.08 0.02 0.01 0.06 0.06 0.03 0.00 0.00 0.00 0.00 0.00 0.00 0.06 0.07 0.01 0.02 0.04 0.05 0.06 0.08 0.04 0.01 0.00 0.00 0.00 0.00 0.00 0.00 0.02 0.02 0.04 0.04 0.11 0.05 0.04 0.02 0.03 0.04
0.00 0.01 0.02 0.01 0.09 0.51 0.52 0.29 0.23 0.14 0.05 0.04 0.04 0.01 0.01 0.01 0.06 0.16 0.18 0.13 0.13 0.08 0.12 0.14 0.12 0.03 0.00 0.00 0.00 0.00 0.00 0.00 0.00 0.01 0.02 0.03 0.02 0.07 0.03 0.01 0.02 0.02 0.02
0.04 0.04 0.07 0.04 0.06 0.35 1.33 2.05 1.93 1.13 0.73 0.48 0.48 0.62 0.42 0.30 0.46 0.37 0.24 0.24 0.29 0.23 0.16 0.12 0.07 0.04 0.00 0.00 0.00 0.00 0.00 0.00 0.00 0.00 0.01 0.01 0.01 0.02 0.02 0.01 0.01 0.01 0.01
0.02 0.07 0.11 0.12 0.12 0.22 0.82 2.26 3.95 5.25 3.28 1.58 1.14 1.08 1.13 0.88 0.57 0.36 0.21 0.17 0.14 0.12 0.14 0.05 0.03 0.02 0.00 0.00 0.00 0.00 0.00 0.00 0.00 0.00 0.00 0.01 0.02 0.02 0.02 0.01 0.01 0.01 0.01
0.00 0.06 0.08 0.09 0.19 0.08 0.29 1.33 2.34 3.38 4.23 3.78 2.61 1.65 1.99 1.31 0.94 0.50 0.27 0.19 0.15 0.12 0.09 0.05 0.02 0.00 0.00 0.00 0.00 0.00 0.00 0.00 0.00 0.00 0.00 0.01 0.02 0.02 0.02 0.01 0.01 0.01 0.01
0.01 0.01 0.07 0.12 0.12 0.12 0.31 0.57 1.43 3.01 2.19 2.12 3.01 2.61 2.02 1.44 1.05 0.78 0.55 0.44 0.28 0.16 0.07 0.06 0.03 0.00 0.00 0.00 0.00 0.00 0.00 0.00 0.00 0.00 0.00 0.01 0.02 0.01 0.01 0.01 0.01 0.01 0.00
0.02 0.02 0.06 0.11 0.17 0.13 0.27 0.45 0.68 1.79 2.27 1.98 1.12 1.98 1.98 1.35 1.01 0.78 0.64 0.54 0.64 0.50 0.18 0.09 0.08 0.01 0.00 0.00 0.00 0.00 0.00 0.00 0.00 0.00 0.00 0.01 0.01 0.01 0.01 0.01 0.01 0.00 0.00
0.02 0.06 0.16 0.25 0.32 0.34 0.40 0.62 0.51 0.72 1.49 2.07 1.41 0.96 1.24 1.07 0.73 0.52 0.47 0.42 0.54 0.69 0.49 0.31 0.15 0.06 0.02 0.02 0.02 0.01 0.00 0.00 0.00 0.00 0.00 0.01 0.01 0.00 0.01 0.00 0.00 0.01 0.01
0.06 0.07 0.11 0.15 0.43 0.44 0.43 0.67 0.41 0.43 1.08 1.99 1.78 0.83 0.89 0.94 0.79 0.36 0.28 0.35 0.42 0.55 0.48 0.59 0.25 0.10 0.02 0.01 0.01 0.01 0.00 0.00 0.00 0.00 0.00 0.01 0.01 0.01 0.01 0.01 0.01 0.01 0.01
0.05 0.05 0.07 0.08 0.18 0.47 0.68 0.46 0.37 0.22 0.84 1.56 1.97 0.86 0.85 0.66 0.76 0.32 0.09 0.16 0.28 0.20 0.22 0.40 0.26 0.08 0.01 0.01 0.01 0.01 0.00 0.00 0.00 0.00 0.00 0.00 0.02 0.01 0.01 0.01 0.01 0.01 0.01
0.04 0.02 0.01 0.02 0.06 0.12 0.53 0.84 0.48 0.41 0.64 1.16 1.83 0.75 0.47 0.37 0.52 0.30 0.09 0.13 0.16 0.08 0.13 0.16 0.19 0.06 0.02 0.01 0.01 0.00 0.00 0.00 0.00 0.00 0.00 0.00 0.01 0.02 0.01 0.02 0.02 0.01 0.01
0.01 0.00 0.00 0.01 0.05 0.06 0.24 0.68 1.09 0.52 0.67 0.91 1.23 0.77 0.39 0.27 0.28 0.28 0.15 0.13 0.08 0.06 0.08 0.10 0.09 0.04 0.02 0.00 0.00 0.00 0.00 0.00 0.00 0.00 0.00 0.00 0.00 0.01 0.02 0.02 0.01 0.01 0.01
0.01 0.01 0.01 0.02 0.05 0.12 0.17 0.28 0.84 0.81 0.48 0.48 0.72 0.75 0.42 0.28 0.15 0.22 0.18 0.18 0.07 0.04 0.11 0.15 0.11 0.05 0.02 0.01 0.01 0.00 0.00 0.00 0.00 0.00 0.00 0.00 0.00 0.01 0.02 0.03 0.02 0.01 0.01
0.01 0.01 0.01 0.00 0.02 0.10 0.15 0.27 0.43 0.71 0.63 0.37 0.39 0.52 0.35 0.33 0.18 0.18 0.22 0.29 0.12 0.05 0.07 0.11 0.09 0.04 0.02 0.00 0.00 0.00 0.00 0.00 0.00 0.00 0.00 0.00 0.00 0.00 0.01 0.01 0.02 0.01 0.01
0.01 0.01 0.00 0.00 0.02 0.03 0.12 0.23 0.33 0.43 0.71 0.42 0.43 0.43 0.38 0.39 0.22 0.12 0.20 0.23 0.12 0.07 0.07 0.05 0.05 0.02 0.01 0.00 0.00 0.00 0.00 0.00 0.00 0.00 0.00 0.00 0.00 0.00 0.00 0.00 0.00 0.01 0.01
0.01 0.02 0.00 0.00 0.03 0.02 0.05 0.13 0.23 0.37 0.59 0.62 0.52 0.35 0.46 0.47 0.29 0.15 0.15 0.27 0.24 0.16 0.14 0.04 0.03 0.02 0.00 0.00 0.00 0.00 0.00 0.00 0.00 0.00 0.00 0.00 0.00 0.00 0.00 0.00 0.00 0.00 0.00
0.01 0.02 0.01 0.01 0.01 0.03 0.04 0.07 0.16 0.26 0.35 0.63 0.61 0.35 0.45 0.60 0.41 0.24 0.08 0.13 0.29 0.28 0.16 0.04 0.02 0.01 0.01 0.01 0.00 0.00 0.00 0.00 0.00 0.00 0.00 0.00 0.00 0.00 0.00 0.00 0.00 0.00 0.00
0.01 0.01 0.00 0.00 0.00 0.02 0.01 0.01 0.04 0.08 0.19 0.48 0.74 0.47 0.54 0.57 0.48 0.41 0.13 0.07 0.17 0.21 0.18 0.05 0.02 0.02 0.01 0.00 0.00 0.04 0.04 0.03 0.00 0.00 0.00 0.00 0.00 0.00 0.00 0.00 0.00 0.00 0.00
0.00 0.01 0.01 0.00 0.00 0.00 0.01 0.01 0.02 0.07 0.20 0.83 1.17 0.83 0.61 0.60 0.47 0.42 0.26 0.16 0.08 0.15 0.11 0.05 0.02 0.01 0.15 0.06 0.01 0.09 0.15 0.09 0.11 0.02 0.00 0.00 0.00 0.00 0.00 0.00 0.00 0.00 0.00
0.00 0.00 0.01 0.01 0.00 0.00 0.01 0.00 0.01 0.04 0.09 0.44 0.96 0.87 0.64 0.76 0.60 0.32 0.32 0.22 0.10 0.03 0.06 0.07 0.04 0.03 0.34 0.23 0.17 0.07 0.07 0.13 0.26 0.20 0.05 0.00 0.00 0.00 0.00 0.00 0.00 0.00 0.00
0.00 0.00 0.01 0.01 0.00 0.00 0.01 0.00 0.00 0.01 0.01 0.11 0.82 1.10 0.87 0.76 0.64 0.35 0.33 0.26 0.12 0.06 0.08 0.13 0.18 0.18 0.37 0.17 0.03 0.09 0.06 0.06 0.11 0.08 0.05 0.05 0.02 0.00 0.00 0.00 0.00 0.00 0.00
0.00 0.00 0.00 0.01 0.00 0.00 0.01 0.01 0.01 0.00 0.01 0.04 0.35 0.79 1.05 0.79 0.65 0.43 0.34 0.28 0.19 0.11 0.10 0.12 0.12 0.20 0.29 0.22 0.08 0.09 0.08 0.07 0.06 0.09 0.07 0.10 0.13 0.06 0.02 0.01 0.01 0.00 0.00

GFSSE_prec_precacc24_096.txt.gz
Total_Precipitation_Accumulation
0.00 0.00 0.00 0.01 0.01 0.00 0.00 0.00 0.00 0.00 0.00 0.00 0.00 0.00 0.00 0.00 0.00 0.00 0.00 0.00 0.00 0.00 0.00 0.00 0.01 0.05 0.02 0.03 0.05 0.03 0.02 0.02 0.01 0.03 0.06 0.10 0.07 0.05 0.07 0.15 0.09 0.04 0.16
0.00 0.00 0.00 0.01 0.01 0.00 0.00 0.00 0.00 0.00 0.00 0.00 0.00 0.00 0.00 0.00 0.00 0.00 0.00 0.00 0.00 0.01 0.01 0.01 0.01 0.01 0.02 0.02 0.01 0.01 0.00 0.00 0.01 0.03 0.13 0.18 0.10 0.06 0.10 0.17 0.09 0.11 0.17
0.00 0.00 0.00 0.00 0.00 0.00 0.00 0.00 0.00 0.00 0.00 0.00 0.00 0.00 0.00 0.00 0.00 0.01 0.01 0.00 0.00 0.02 0.03 0.02 0.02 0.04 0.01 0.01 0.00 0.00 0.00 0.00 0.01 0.06 0.25 0.09 0.10 0.10 0.11 0.10 0.10 0.14 0.10
0.00 0.00 0.00 0.00 0.01 0.00 0.00 0.00 0.00 0.00 0.00 0.00 0.00 0.03 0.03 0.03 0.06 0.04 0.03 0.01 0.02 0.04 0.05 0.02 0.05 0.04 0.02 0.00 0.00 0.00 0.00 0.00 0.01 0.04 0.16 0.09 0.08 0.14 0.07 0.16 0.14 0.07 0.04
0.00 0.00 0.00 0.00 0.01 0.01 0.00 0.00 0.01 0.05 0.03 0.00 0.00 0.02 0.00 0.03 0.04 0.09 0.12 0.01 0.03 0.08 0.13 0.12 0.16 0.06 0.01 0.00 0.00 0.00 0.00 0.01 0.02 0.11 0.10 0.17 0.08 0.22 0.15 0.16 0.20 0.15 0.10
0.00 0.00 0.00 0.00 0.01 0.01 0.01 0.00 0.03 0.08 0.04 0.02 0.02 0.01 0.03 0.05 0.14 0.36 0.34 0.17 0.18 0.19 0.27 0.25 0.22 0.04 0.00 0.00 0.00 0.00 0.00 0.03 0.07 0.19 0.07 0.13 0.07 0.14 0.08 0.05 0.03 0.02 0.02
0.00 0.00 0.00 0.00 0.01 0.11 0.12 0.12 0.35 0.47 0.56 0.43 0.47 0.62 0.44 0.31 0.67 0.56 0.31 0.29 0.34 0.30 0.27 0.29 0.15 0.04 0.00 0.00 0.00 0.00 0.01 0.08 0.08 0.17 0.15 0.13 0.06 0.08 0.03 0.01 0.01 0.01 0.01
0.00 0.00 0.00 0.01 0.00 0.06 0.21 0.61 1.80 2.53 1.90 1.31 1.14 1.14 1.13 0.95 0.69 0.41 0.27 0.31 0.18 0.14 0.19 0.17 0.07 0.02 0.00 0.00 0.00 0.00 0.00 0.06 0.05 0.16 0.09 0.08 0.05 0.03 0.02 0.01 0.01 0.01 0.01
0.00 0.00 0.00 0.02 0.06 0.03 0.07 0.38 0.86 1.60 2.61 2.77 2.59 1.79 2.34 1.72 1.17 0.57 0.35 0.34 0.45 0.31 0.19 0.08 0.03 0.04 0.03 0.04 0.03 0.02 0.02 0.04 0.09 0.04 0.03 0.02 0.04 0.02 0.02 0.01 0.01 0.01 0.01
0.00 0.00 0.00 0.02 0.07 0.07 0.15 0.23 0.53 0.58 0.72 1.36 2.82 2.68 2.10 1.52 1.15 0.91 0.70 0.61 0.48 0.41 0.45 0.49 0.43 0.31 0.14 0.06 0.01 0.02 0.01 0.00 0.12 0.03 0.02 0.01 0.03 0.02 0.01 0.01 0.01 0.01 0.01
0.00 0.00 0.00 0.01 0.06 0.05 0.14 0.22 0.36 0.30 0.40 0.58 0.84 1.71 2.01 1.49 1.16 1.05 0.97 1.01 1.20 1.02 0.86 0.65 0.46 0.28 0.21 0.14 0.05 0.04 0.02 0.01 0.09 0.07 0.01 0.01 0.01 0.01 0.01 0.01 0.01 0.00 0.01
0.00 0.00 0.01 0.11 0.16 0.12 0.12 0.32 0.35 0.37 0.35 0.70 0.82 0.73 1.24 1.10 0.76 0.58 0.69 0.69 0.72 0.87 0.77 0.68 0.46 0.35 0.30 0.19 0.13 0.07 0.04 0.03 0.01 0.02 0.00 0.01 0.02 0.00 0.01 0.01 0.00 0.01 0.01
0.00 0.00 0.01 0.04 0.17 0.17 0.15 0.39 0.25 0.19 0.28 0.78 1.09 0.60 0.82 0.88 0.69 0.44 0.38 0.48 0.49 0.71 0.72 0.85 0.53 0.42 0.26 0.18 0.12 0.04 0.04 0.01 0.00 0.00 0.00 0.00 0.02 0.01 0.01 0.01 0.01 0.02 0.02
0.00 0.00 0.00 0.01 0.06 0.09 0.11 0.25 0.16 0.10 0.12 0.51 1.35 0.51 0.66 0.57 0.72 0.18 0.11 0.19 0.31 0.28 0.37 0.73 0.65 0.46 0.37 0.28 0.17 0.14 0.07 0.00 0.00 0.00 0.00 0.00 0.02 0.02 0.02 0.02 0.02 0.02 0.01
0.00 0.00 0.00 0.00 0.00 0.02 0.05 0.18 0.20 0.11 0.11 0.31 1.38 0.51 0.28 0.28 0.47 0.22 0.10 0.14 0.17 0.10 0.19 0.34 0.56 0.47 0.39 0.31 0.28 0.16 0.03 0.02 0.00 0.00 0.00 0.00 0.02 0.02 0.02 0.02 0.02 0.02 0.01
0.00 0.00 0.00 0.00 0.00 0.01 0.15 0.26 0.41 0.20 0.15 0.31 0.97 0.63 0.23 0.19 0.22 0.19 0.12 0.13 0.11 0.09 0.16 0.29 0.53 0.51 0.46 0.28 0.27 0.12 0.01 0.02 0.01 0.00 0.00 0.00 0.01 0.02 0.02 0.03 0.02 0.01 0.02
0.00 0.00 0.00 0.00 0.00 0.01 0.03 0.12 0.30 0.31 0.20 0.15 0.45 0.59 0.26 0.23 0.14 0.17 0.19 0.20 0.10 0.08 0.17 0.36 0.52 0.65 0.50 0.32 0.17 0.10 0.03 0.02 0.00 0.00 0.00 0.00 0.00 0.01 0.02 0.04 0.03 0.01 0.01
0.00 0.00 0.00 0.00 0.00 0.00 0.02 0.05 0.12 0.27 0.25 0.14 0.19 0.38 0.25 0.31 0.17 0.16 0.23 0.40 0.30 0.14 0.13 0.24 0.41 0.73 0.44 0.21 0.14 0.14 0.04 0.00 0.00 0.00 0.00 0.00 0.00 0.00 0.01 0.02 0.02 0.02 0.02
0.00 0.00 0.00 0.00 0.00 0.00 0.01 0.06 0.16 0.24 0.40 0.21 0.29 0.33 0.31 0.37 0.22 0.15 0.23 0.32 0.38 0.32 0.24 0.19 0.31 0.45 0.36 0.21 0.14 0.06 0.01 0.00 0.00 0.00 0.00 0.00 0.00 0.00 0.00 0.00 0.01 0.01 0.01
0.00 0.00 0.00 0.00 0.00 0.00 0.01 0.07 0.18 0.29 0.38 0.41 0.41 0.31 0.41 0.44 0.30 0.17 0.24 0.47 0.34 0.33 0.26 0.16 0.23 0.35 0.24 0.18 0.25 0.04 0.00 0.00 0.00 0.00 0.00 0.00 0.00 0.00 0.00 0.00 0.00 0.00 0.00
0.00 0.00 0.00 0.00 0.01 0.00 0.02 0.05 0.15 0.23 0.28 0.53 0.55 0.33 0.43 0.57 0.42 0.26 0.14 0.31 0.60 0.49 0.31 0.14 0.17 0.29 0.33 0.15 0.17 0.05 0.03 0.00 0.00 0.00 0.00 0.00 0.00 0.00 0.00 0.00 0.00 0.00 0.00
0.00 0.00 0.00 0.00 0.00 0.00 0.01 0.01 0.04 0.08 0.18 0.47 0.73 0.47 0.53 0.58 0.50 0.43 0.16 0.12 0.30 0.56 0.62 0.29 0.16 0.22 0.25 0.18 0.10 0.01 0.04 0.02 0.01 0.00 0.00 0.00 0.00 0.00 0.00 0.00 0.00 0.00 0.00
0.00 0.00 0.00 0.00 0.00 0.00 0.01 0.01 0.02 0.06 0.17 0.82 1.18 0.84 0.62 0.60 0.48 0.46 0.31 0.21 0.15 0.31 0.41 0.28 0.15 0.12 0.13 0.15 0.11 0.00 0.01 0.01 0.01 0.01 0.00 0.00 0.00 0.00 0.00 0.00 0.00 0.00 0.00
0.00 0.00 0.00 0.00 0.00 0.01 0.00 0.00 0.01 0.03 0.08 0.45 0.97 0.88 0.65 0.76 0.63 0.37 0.40 0.36 0.20 0.16 0.32 0.27 0.16 0.13 0.12 0.09 0.08 0.01 0.02 0.06 0.02 0.03 0.02 0.00 0.00 0.00 0.00 0.00 0.00 0.00 0.00
0.00 0.00 0.00 0.00 0.00 0.00 0.01 0.00 0.00 0.01 0.01 0.11 0.82 1.13 0.90 0.79 0.79 0.54 0.42 0.40 0.28 0.18 0.16 0.28 0.23 0.18 0.16 0.09 0.02 0.02 0.01 0.03 0.03 0.02 0.01 0.00 0.00 0.00 0.00 0.00 0.00 0.00 0.00
0.00 0.00 0.00 0.00 0.00 0.00 0.01 0.01 0.00 0.00 0.01 0.04 0.36 0.81 1.08 0.83 0.76 0.66 0.60 0.53 0.32 0.19 0.14 0.19 0.21 0.18 0.17 0.12 0.03 0.01 0.00 0.00 0.02 0.03 0.02 0.01 0.00 0.00 0.00 0.00 0.00 0.00 0.00

GFSSE_prec_precacc24_102.txt.gz
Total_Precipitation_Accumulation
0.00 0.00 0.00 0.01 0.01 0.00 0.00 0.00 0.00 0.00 0.00 0.00 0.00 0.00 0.00 0.00 0.00 0.00 0.00 0.00 0.00 0.00 0.00 0.00 0.01 0.05 0.03 0.08 0.08 0.05 0.05 0.07 0.15 0.20 0.11 0.12 0.07 0.03 0.06 0.15 0.09 0.04 0.19
0.00 0.00 0.00 0.01 0.01 0.00 0.00 0.00 0.00 0.00 0.00 0.00 0.00 0.00 0.00 0.00 0.00 0.00 0.00 0.00 0.00 0.00 0.00 0.00 0.02 0.02 0.01 0.02 0.01 0.01 0.00 0.04 0.06 0.07 0.12 0.16 0.10 0.05 0.09 0.18 0.08 0.10 0.16
0.00 0.00 0.00 0.00 0.00 0.00 0.00 0.00 0.00 0.00 0.00 0.00 0.00 0.00 0.00 0.00 0.00 0.01 0.01 0.00 0.00 0.01 0.02 0.01 0.04 0.03 0.01 0.01 0.00 0.00 0.00 0.01 0.03 0.08 0.25 0.09 0.09 0.12 0.10 0.11 0.10 0.14 0.12
0.00 0.00 0.00 0.00 0.01 0.00 0.00 0.00 0.00 0.00 0.00 0.00 0.00 0.03 0.03 0.04 0.06 0.04 0.02 0.00 0.01 0.03 0.05 0.01 0.04 0.04 0.02 0.01 0.00 0.00 0.00 0.01 0.02 0.04 0.16 0.08 0.08 0.19 0.10 0.16 0.15 0.08 0.05
0.00 0.00 0.00 0.00 0.01 0.01 0.00 0.00 0.00 0.02 0.02 0.00 0.00 0.02 0.00 0.03 0.04 0.10 0.12 0.01 0.02 0.10 0.17 0.12 0.16 0.06 0.01 0.00 0.00 0.00 0.00 0.01 0.03 0.12 0.13 0.16 0.08 0.40 0.31 0.26 0.25 0.15 0.10
0.00 0.00 0.00 0.00 0.01 0.01 0.01 0.00 0.00 0.01 0.03 0.02 0.01 0.01 0.03 0.05 0.15 0.39 0.39 0.19 0.19 0.22 0.30 0.30 0.25 0.04 0.00 0.00 0.00 0.00 0.00 0.03 0.08 0.22 0.08 0.13 0.07 0.24 0.14 0.06 0.03 0.02 0.02
0.00 0.00 0.00 0.00 0.00 0.02 0.02 0.01 0.02 0.01 0.05 0.08 0.28 0.47 0.42 0.31 0.68 0.58 0.33 0.34 0.34 0.30 0.30 0.45 0.33 0.04 0.00 0.00 0.00 0.00 0.01 0.08 0.09 0.23 0.17 0.13 0.08 0.18 0.06 0.01 0.01 0.01 0.02
0.00 0.00 0.00 0.00 0.00 0.01 0.02 0.12 0.31 0.09 0.10 0.10 0.17 0.35 0.63 0.78 0.66 0.41 0.32 0.47 0.24 0.16 0.28 0.25 0.09 0.02 0.00 0.00 0.00 0.00 0.00 0.07 0.05 0.24 0.19 0.10 0.16 0.20 0.03 0.01 0.01 0.01 0.01
0.00 0.00 0.00 0.00 0.00 0.01 0.04 0.11 0.09 0.22 0.32 0.50 0.55 0.49 0.74 0.99 0.93 0.55 0.39 0.45 0.55 0.42 0.33 0.13 0.15 0.17 0.06 0.12 0.11 0.03 0.02 0.05 0.10 0.08 0.07 0.04 0.28 0.24 0.04 0.01 0.01 0.01 0.01
0.00 0.00 0.00 0.00 0.01 0.02 0.08 0.05 0.05 0.22 0.32 0.42 0.70 0.62 0.50 0.63 0.80 0.86 0.80 0.78 0.69 0.58 0.74 1.06 0.94 0.80 0.50 0.36 0.29 0.16 0.01 0.00 0.15 0.08 0.13 0.09 0.17 0.12 0.02 0.01 0.01 0.01 0.01
0.00 0.00 0.00 0.00 0.01 0.02 0.05 0.08 0.12 0.15 0.29 0.27 0.21 0.21 0.41 0.64 0.79 0.97 0.99 1.08 1.34 1.24 1.15 0.77 0.54 0.36 0.33 0.32 0.31 0.34 0.16 0.05 0.13 0.15 0.04 0.04 0.08 0.04 0.02 0.01 0.01 0.01 0.01
0.00 0.00 0.00 0.00 0.00 0.01 0.04 0.12 0.20 0.28 0.31 0.30 0.19 0.09 0.16 0.30 0.49 0.55 0.71 0.74 0.77 0.94 0.84 0.73 0.62 0.42 0.33 0.28 0.28 0.29 0.27 0.19 0.07 0.10 0.04 0.04 0.06 0.02 0.02 0.01 0.00 0.01 0.02
0.00 0.00 0.00 0.00 0.00 0.01 0.02 0.10 0.14 0.15 0.23 0.22 0.19 0.11 0.10 0.25 0.52 0.43 0.38 0.49 0.49 0.72 0.74 0.96 0.71 0.49 0.27 0.20 0.17 0.20 0.27 0.23 0.08 0.04 0.04 0.04 0.03 0.02 0.02 0.01 0.01 0.02 0.02
0.00 0.00 0.00 0.00 0.00 0.00 0.01 0.04 0.04 0.07 0.09 0.13 0.14 0.13 0.12 0.26 0.67 0.17 0.11 0.20 0.31 0.29 0.42 0.94 0.91 0.57 0.42 0.35 0.24 0.24 0.19 0.24 0.17 0.03 0.00 0.01 0.03 0.01 0.02 0.02 0.02 0.02 0.01
0.00 0.00 0.00 0.00 0.00 0.00 0.01 0.02 0.03 0.02 0.04 0.06 0.07 0.06 0.06 0.15 0.46 0.18 0.09 0.14 0.17 0.10 0.21 0.40 0.65 0.55 0.42 0.35 0.37 0.37 0.15 0.14 0.15 0.05 0.00 0.00 0.02 0.02 0.02 0.02 0.03 0.03 0.02
0.00 0.00 0.00 0.00 0.00 0.01 0.01 0.01 0.07 0.03 0.03 0.04 0.05 0.07 0.09 0.16 0.21 0.17 0.11 0.13 0.11 0.11 0.19 0.33 0.60 0.58 0.53 0.35 0.36 0.23 0.11 0.15 0.13 0.06 0.00 0.00 0.01 0.02 0.02 0.03 0.03 0.02 0.02
0.00 0.00 0.00 0.00 0.00 0.01 0.01 0.01 0.05 0.07 0.05 0.04 0.06 0.09 0.13 0.22 0.14 0.16 0.19 0.20 0.11 0.11 0.21 0.41 0.57 0.69 0.57 0.45 0.32 0.20 0.17 0.18 0.11 0.04 0.00 0.00 0.00 0.01 0.02 0.04 0.04 0.02 0.02
0.00 0.00 0.00 0.00 0.00 0.02 0.02 0.02 0.04 0.08 0.08 0.10 0.12 0.16 0.20 0.31 0.17 0.16 0.23 0.40 0.31 0.18 0.19 0.28 0.44 0.75 0.50 0.35 0.26 0.22 0.18 0.18 0.11 0.06 0.01 0.00 0.00 0.00 0.01 0.02 0.03 0.03 0.02
0.00 0.00 0.00 0.00 0.00 0.00 0.02 0.03 0.09 0.10 0.17 0.14 0.26 0.28 0.27 0.36 0.22 0.15 0.23 0.30 0.38 0.34 0.28 0.24 0.35 0.48 0.49 0.37 0.24 0.16 0.15 0.11 0.08 0.07 0.02 0.00 0.00 0.00 0.00 0.01 0.01 0.01 0.02
0.00 0.00 0.00 0.00 0.00 0.02 0.07 0.10 0.17 0.22 0.16 0.28 0.35 0.28 0.40 0.43 0.30 0.17 0.23 0.39 0.29 0.31 0.24 0.20 0.32 0.45 0.35 0.39 0.46 0.19 0.21 0.15 0.08 0.05 0.02 0.00 0.00 0.00 0.00 0.00 0.01 0.00 0.01
0.00 0.00 0.00 0.00 0.01 0.02 0.03 0.04 0.07 0.15 0.15 0.35 0.49 0.30 0.42 0.58 0.42 0.25 0.14 0.28 0.53 0.37 0.27 0.18 0.27 0.45 0.54 0.36 0.62 0.59 0.29 0.18 0.09 0.06 0.01 0.00 0.00 0.00 0.00 0.00 0.00 0.00 0.00
0.00 0.00 0.00 0.00 0.00 0.00 0.01 0.02 0.04 0.08 0.15 0.40 0.69 0.46 0.52 0.58 0.51 0.43 0.16 0.12 0.29 0.53 0.61 0.34 0.25 0.41 0.47 0.40 0.42 0.41 0.35 0.25 0.10 0.08 0.01 0.00 0.00 0.00 0.00 0.00 0.00 0.00 0.00
0.00 0.00 0.00 0.00 0.00 0.01 0.01 0.03 0.03 0.07 0.15 0.65 1.05 0.78 0.61 0.61 0.50 0.47 0.33 0.22 0.16 0.31 0.56 0.50 0.26 0.20 0.32 0.37 0.30 0.21 0.13 0.15 0.07 0.04 0.01 0.00 0.00 0.00 0.00 0.00 0.00 0.00 0.00
0.00 0.00 0.00 0.00 0.00 0.01 0.00 0.00 0.01 0.02 0.06 0.39 0.94 0.85 0.66 0.78 0.64 0.40 0.44 0.43 0.24 0.17 0.33 0.34 0.25 0.22 0.23 0.27 0.31 0.14 0.03 0.00 0.01 0.02 0.02 0.01 0.00 0.00 0.00 0.00 0.00 0.00 0.00
0.00 0.00 0.00 0.00 0.00 0.00 0.00 0.00 0.01 0.01 0.01 0.10 0.83 1.12 0.89 0.80 0.82 0.62 0.46 0.45 0.32 0.20 0.18 0.29 0.24 0.23 0.23 0.15 0.13 0.09 0.04 0.00 0.00 0.00 0.02 0.00 0.00 0.00 0.00 0.00 0.00 0.00 0.00
0.00 0.00 0.00 0.00 0.00 0.00 0.00 0.01 0.01 0.00 0.01 0.04 0.36 0.82 1.08 0.84 0.78 0.70 0.66 0.58 0.35 0.21 0.15 0.21 0.24 0.22 0.16 0.16 0.10 0.06 0.03 0.01 0.01 0.00 0.00 0.00 0.00 0.00 0.00 0.00 0.00 0.00 0.00

GFSSE_prec_precacc24_105.txt.gz
Total_Precipitation_Accumulation
0.00 0.00 0.00 0.01 0.01 0.00 0.00 0.00 0.00 0.00 0.00 0.00 0.00 0.00 0.00 0.00 0.00 0.00 0.00 0.00 0.01 0.01 0.00 0.00 0.01 0.05 0.05 0.09 0.09 0.05 0.05 0.07 0.20 0.20 0.11 0.14 0.07 0.04 0.05 0.15 0.10 0.04 0.21
0.00 0.00 0.00 0.01 0.01 0.00 0.00 0.00 0.00 0.00 0.00 0.00 0.00 0.00 0.00 0.00 0.00 0.00 0.00 0.00 0.00 0.00 0.00 0.00 0.03 0.04 0.04 0.06 0.01 0.01 0.00 0.04 0.06 0.06 0.10 0.15 0.09 0.05 0.08 0.19 0.09 0.13 0.18
0.00 0.00 0.00 0.00 0.00 0.00 0.00 0.00 0.00 0.00 0.00 0.00 0.00 0.00 0.00 0.00 0.00 0.01 0.01 0.00 0.00 0.01 0.01 0.02 0.08 0.07 0.01 0.01 0.00 0.00 0.00 0.01 0.03 0.08 0.24 0.08 0.09 0.12 0.10 0.12 0.12 0.17 0.13
0.00 0.00 0.00 0.00 0.01 0.00 0.00 0.00 0.00 0.00 0.00 0.00 0.00 0.03 0.03 0.04 0.06 0.04 0.02 0.00 0.01 0.03 0.05 0.01 0.03 0.03 0.02 0.01 0.00 0.00 0.00 0.01 0.02 0.04 0.16 0.07 0.08 0.18 0.10 0.15 0.16 0.09 0.05
0.00 0.00 0.00 0.00 0.01 0.01 0.00 0.00 0.00 0.02 0.02 0.00 0.00 0.02 0.00 0.03 0.04 0.10 0.12 0.01 0.02 0.10 0.17 0.12 0.15 0.05 0.01 0.00 0.00 0.00 0.00 0.01 0.03 0.12 0.13 0.16 0.08 0.42 0.34 0.27 0.28 0.19 0.11
0.00 0.00 0.00 0.00 0.01 0.01 0.01 0.00 0.00 0.01 0.03 0.02 0.00 0.00 0.03 0.05 0.15 0.39 0.39 0.19 0.19 0.22 0.30 0.29 0.23 0.04 0.00 0.00 0.00 0.00 0.00 0.03 0.08 0.22 0.08 0.14 0.07 0.28 0.22 0.06 0.05 0.04 0.03
0.00 0.00 0.00 0.00 0.00 0.02 0.02 0.01 0.00 0.00 0.01 0.03 0.08 0.29 0.30 0.22 0.65 0.58 0.36 0.40 0.34 0.30 0.30 0.47 0.32 0.04 0.00 0.00 0.00 0.00 0.01 0.08 0.09 0.23 0.20 0.14 0.08 0.25 0.14 0.01 0.01 0.01 0.02
0.00 0.00 0.00 0.00 0.00 0.01 0.02 0.03 0.05 0.03 0.02 0.03 0.12 0.25 0.40 0.48 0.44 0.30 0.32 0.49 0.25 0.17 0.31 0.26 0.08 0.02 0.00 0.00 0.00 0.00 0.00 0.07 0.05 0.24 0.21 0.10 0.16 0.29 0.07 0.01 0.01 0.01 0.01
0.00 0.00 0.00 0.00 0.00 0.01 0.02 0.02 0.01 0.01 0.02 0.11 0.30 0.40 0.58 0.61 0.39 0.25 0.30 0.45 0.61 0.48 0.41 0.13 0.15 0.17 0.06 0.12 0.11 0.03 0.02 0.05 0.10 0.08 0.11 0.06 0.36 0.33 0.07 0.01 0.01 0.01 0.01
0.00 0.00 0.00 0.00 0.01 0.01 0.02 0.02 0.01 0.02 0.05 0.12 0.20 0.26 0.34 0.24 0.20 0.34 0.56 0.71 0.79 0.69 0.92 1.16 0.96 0.84 0.53 0.36 0.29 0.16 0.01 0.00 0.15 0.09 0.21 0.13 0.24 0.21 0.03 0.01 0.01 0.01 0.01
0.00 0.00 0.00 0.00 0.00 0.02 0.02 0.04 0.03 0.03 0.08 0.11 0.13 0.15 0.33 0.47 0.42 0.52 0.77 1.02 1.36 1.29 1.20 0.77 0.54 0.36 0.34 0.32 0.31 0.34 0.17 0.06 0.16 0.17 0.16 0.16 0.19 0.20 0.03 0.01 0.01 0.00 0.01
0.00 0.00 0.00 0.00 0.00 0.01 0.02 0.03 0.08 0.16 0.15 0.17 0.14 0.08 0.15 0.16 0.19 0.24 0.53 0.70 0.76 0.95 0.84 0.73 0.62 0.42 0.33 0.28 0.28 0.30 0.27 0.22 0.14 0.18 0.06 0.16 0.21 0.08 0.03 0.00 0.00 0.01 0.01
0.00 0.00 0.00 0.00 0.00 0.01 0.02 0.03 0.04 0.06 0.12 0.16 0.18 0.11 0.09 0.08 0.11 0.23 0.28 0.46 0.48 0.72 0.74 0.96 0.76 0.49 0.28 0.20 0.17 0.20 0.27 0.25 0.16 0.16 0.19 0.15 0.19 0.03 0.02 0.01 0.01 0.02 0.02
0.00 0.00 0.00 0.00 0.00 0.00 0.01 0.02 0.02 0.05 0.08 0.13 0.14 0.13 0.11 0.11 0.10 0.08 0.09 0.20 0.31 0.29 0.42 0.95 1.01 0.60 0.44 0.35 0.25 0.25 0.19 0.27 0.26 0.16 0.15 0.14 0.20 0.06 0.02 0.02 0.02 0.02 0.01
0.00 0.00 0.00 0.00 0.00 0.00 0.01 0.01 0.02 0.02 0.04 0.06 0.06 0.06 0.05 0.06 0.07 0.12 0.09 0.14 0.17 0.10 0.21 0.41 0.68 0.57 0.43 0.35 0.37 0.37 0.15 0.15 0.23 0.18 0.15 0.13 0.11 0.07 0.02 0.03 0.03 0.03 0.02
0.00 0.00 0.00 0.00 0.00 0.01 0.00 0.00 0.01 0.01 0.02 0.04 0.05 0.04 0.03 0.06 0.07 0.13 0.11 0.13 0.11 0.11 0.19 0.33 0.60 0.60 0.54 0.35 0.36 0.23 0.11 0.15 0.14 0.15 0.12 0.08 0.06 0.03 0.02 0.03 0.03 0.02 0.03
0.00 0.00 0.00 0.00 0.00 0.01 0.01 0.00 0.01 0.01 0.02 0.03 0.03 0.05 0.07 0.07 0.10 0.15 0.19 0.20 0.11 0.11 0.21 0.41 0.57 0.69 0.58 0.45 0.33 0.21 0.17 0.19 0.13 0.09 0.09 0.06 0.03 0.01 0.02 0.04 0.04 0.03 0.03
0.00 0.00 0.00 0.00 0.00 0.02 0.01 0.01 0.01 0.02 0.03 0.04 0.04 0.07 0.08 0.16 0.14 0.16 0.23 0.40 0.31 0.18 0.19 0.28 0.44 0.76 0.52 0.36 0.26 0.22 0.19 0.20 0.14 0.12 0.08 0.04 0.01 0.00 0.01 0.02 0.04 0.03 0.03
0.00 0.00 0.00 0.00 0.00 0.00 0.03 0.02 0.02 0.05 0.04 0.04 0.07 0.14 0.13 0.22 0.19 0.15 0.23 0.30 0.38 0.34 0.28 0.24 0.36 0.49 0.49 0.38 0.25 0.18 0.16 0.12 0.11 0.14 0.10 0.04 0.01 0.00 0.00 0.01 0.02 0.01 0.03
0.00 0.00 0.00 0.00 0.00 0.02 0.09 0.11 0.15 0.13 0.09 0.08 0.14 0.19 0.23 0.30 0.28 0.17 0.23 0.39 0.29 0.31 0.24 0.21 0.34 0.46 0.36 0.41 0.50 0.22 0.23 0.16 0.11 0.10 0.10 0.08 0.01 0.00 0.00 0.00 0.01 0.01 0.01
0.00 0.00 0.00 0.00 0.00 0.02 0.03 0.04 0.05 0.05 0.07 0.11 0.22 0.25 0.26 0.50 0.41 0.25 0.14 0.28 0.53 0.37 0.27 0.18 0.28 0.46 0.55 0.38 0.69 0.74 0.46 0.31 0.16 0.13 0.09 0.09 0.03 0.01 0.00 0.00 0.00 0.00 0.00
0.00 0.00 0.00 0.00 0.00 0.00 0.01 0.02 0.03 0.06 0.09 0.21 0.53 0.46 0.41 0.51 0.49 0.43 0.17 0.12 0.29 0.53 0.62 0.35 0.26 0.42 0.48 0.43 0.47 0.51 0.71 0.65 0.39 0.24 0.21 0.10 0.04 0.00 0.00 0.00 0.00 0.00 0.00
0.00 0.00 0.00 0.00 0.00 0.01 0.01 0.03 0.03 0.07 0.13 0.32 0.73 0.73 0.55 0.56 0.48 0.48 0.34 0.23 0.17 0.32 0.56 0.50 0.27 0.22 0.34 0.39 0.32 0.26 0.28 0.33 0.16 0.18 0.19 0.13 0.05 0.00 0.00 0.00 0.00 0.00 0.00
0.00 0.00 0.00 0.00 0.00 0.01 0.00 0.00 0.01 0.02 0.03 0.22 0.65 0.68 0.59 0.79 0.64 0.40 0.47 0.46 0.26 0.18 0.33 0.35 0.26 0.23 0.24 0.28 0.33 0.17 0.09 0.06 0.07 0.10 0.10 0.14 0.06 0.00 0.00 0.00 0.00 0.00 0.00
0.00 0.00 0.00 0.00 0.00 0.00 0.00 0.00 0.01 0.01 0.01 0.04 0.61 0.86 0.65 0.72 0.75 0.58 0.46 0.47 0.36 0.22 0.20 0.31 0.25 0.24 0.24 0.16 0.14 0.11 0.11 0.08 0.06 0.05 0.10 0.09 0.06 0.00 0.00 0.00 0.00 0.00 0.00
0.00 0.00 0.00 0.00 0.00 0.00 0.00 0.01 0.01 0.00 0.01 0.03 0.29 0.67 0.87 0.68 0.64 0.62 0.63 0.59 0.38 0.23 0.17 0.22 0.25 0.23 0.16 0.17 0.12 0.09 0.04 0.02 0.02 0.01 0.02 0.03 0.04 0.03 0.00 0.00 0.00 0.00 0.00